Regional Weather Roundup
Issued by NWS San Diego, CA

Home | Current Version | Previous Version | Text Only | Print | Product List | Glossary On
Versions: 1 2 3 4 5 6 7 8 9 10 11 12 13 14 15 16 17 18 19 20 21 22 23 24 25 26 27 28 29 30 31 32 33 34 35 36 37 38 39 40 41 42 43 44 45 46 47 48 49 50
000
ASUS46 KSGX 301903
RWRSGX

SAN DIEGO HOURLY WEATHER ROUNDUP
NATIONAL WEATHER SERVICE SAN DIEGO CA
1100 AM PST FRI JAN 30 2015

NOTE: "FAIR" INDICATES FEW OR NO CLOUDS BELOW 12,000 FEET WITH NO
SIGNIFICANT WEATHER AND/OR OBSTRUCTIONS TO VISIBILITY.

CAZ042-043-060-061-PZZ750-775-302000-

GREATER SAN DIEGO AREA

CITY           SKY/WX    TMP DP  RH WIND       PRES   REMARKS
LINDBERGH FLD  LGT RAIN  63  53  70 W3        29.95F
IMPERIAL BEACH LGT RAIN  64  56  75 W6        29.95S
BROWN FIELD    CLOUDY    62  55  77 W5        29.94S
MIRAMAR MCAS   CLOUDY    63  52  67 NW3       29.94S
MONTGOMERY FLD CLOUDY    62  51  67 W7        29.94F

$$

NORTH SAN DIEGO COUNTY

CITY           SKY/WX    TMP DP  RH WIND       PRES   REMARKS
CAMP PENDLETON PTSUNNY   64  50  60 W3        29.93S
OCEANSIDE AP   CLOUDY    64  54  69 SW5       29.92F
VISTA            N/A     62  51  67 CALM      29.92S
CARLSBAD       CLOUDY    62  52  69 S3        29.92F
SAN MARCOS       N/A     61  51  70 W2        29.92S
POWAY            N/A    N/A N/A N/A CALM      29.96S

$$

EAST SAN DIEGO COUNTY

CITY           SKY/WX    TMP DP  RH WIND       PRES   REMARKS
RAMONA         CLOUDY    58  50  75 S5        29.94F
SANTEE LAKES     N/A     62  55  80 CALM      29.95F
LA MESA          N/A     61  55  80 CALM      29.88F
CAMPO            N/A     55  44  66 E9        29.91F

$$

ORANGE COUNTY AND THE LOS ANGELES BASIN

CITY           SKY/WX    TMP DP  RH WIND       PRES   REMARKS
JOHN WAYNE AP  CLOUDY    68  50  52 CALM      29.91F
LAKE FOREST FR   N/A     63  44  49 CALM      29.82S
SANTA ANA        N/A     68  55  63 CALM      29.87F
HUNTINGTON BCH   N/A     67  55  66 CALM      29.93F
LOS ALAMITOS   CLOUDY    67  54  63 W5        29.91F
FULLERTON      CLOUDY    67  52  58 CALM      29.91F
LONG BEACH     CLOUDY    68  51  54 CALM      29.91F
L.A. AP        CLOUDY    65  51  60 CALM      29.92F
L.A. DOWNTOWN  CLOUDY    66  50  56 CALM      29.91F

$$

THE INLAND EMPIRE

CITY           SKY/WX    TMP DP  RH WIND       PRES   REMARKS
CORONA         CLOUDY    66  46  48 CALM      29.92F
CHINO          CLOUDY    65  48  54 CALM      29.93F
ONTARIO        CLOUDY    64  46  52 W7        29.92F
SAN BERNARDINO PTSUNNY   64  43  45 CALM      29.93F
RIVERSIDE AP   CLOUDY    65  46  50 SE3       29.92F
MARCH ARB      PTSUNNY   63  44  51 CALM      29.93F
FRENCH VALLEY  CLOUDY    61  46  59 CALM      29.94S

$$

SAN BERNARDINO AND RIVERSIDE COUNTY MOUNTAINS

CITY           SKY/WX    TMP DP  RH WIND       PRES   REMARKS
BIG BEAR AP    MIX PCPN  34  32  93 CALM      30.00S

$$

SOUTHERN DESERT INCLUDING THE COACHELLA VALLEY

CITY           SKY/WX    TMP DP  RH WIND       PRES   REMARKS
PALM SPRINGS   LGT RAIN  64  49  57 SW5       29.96S
THOUSAND PALMS   N/A     62  53  71 W2        29.93S
THERMAL        CLOUDY    66  54  65 NW7       29.91F
BLYTHE         PTSUNNY   62  56  80 S6        29.91F
IMPERIAL AP    CLOUDY    65  52  62 NW7       29.91F
EL CENTRO NAS  PTSUNNY   66  51  58 NW7       29.92F
YUMA AZ        PTSUNNY   66  53  63 NW7       29.91F
MEXICALI       CLOUDY    63  54  72 W6        29.93

$$

UPPER DESERT

CITY           SKY/WX    TMP DP  RH WIND       PRES   REMARKS
VICTORVILLE AP CLOUDY    54  45  71 CALM      29.97F
HESPERIA         N/A     52  47  83 CALM      30.08F
APPLE VALLEY     N/A     54  47  77 CALM      30.03F
PALMDALE       MOSUNNY   56  48  74 CALM      29.97F
LANCASTER      MOSUNNY   56  45  66 CALM      29.97F
EDWARDS AFB    PTSUNNY   56  48  75 SW2       29.95F
DAGGETT        LGT RAIN  56  48  74 W6        29.96F
29 PALMS N     CLOUDY    52  50  93 NW7       30.02F
NEEDLES        CLOUDY    61  50  67 NE10      29.90F

$$

REGIONAL REPORTS

CITY           SKY/WX    TMP DP  RH WIND       PRES   REMARKS
SANTA BARBARA  PTSUNNY   64  49  57 CALM      29.93F
SANDBERG       PTSUNNY   56  41  57 E8        29.99F
MT. WILSON       N/A    N/A N/A N/A MISG        N/A
LAS VEGAS NV   LGT RAIN  53  45  74 NW9       29.90F
PHOENIX AZ     CLOUDY    57  56  96 NE9       29.88F FOG
TIJUANA        CLOUDY    63  54  72 W6        29.96F

$$

OFFSHORE ISLANDS

CITY           SKY/WX    TMP DP  RH WIND       PRES   REMARKS
CATALINA ARPT  CLOUDY    61  54  77 VRB3      29.95F
SAN CLEMENTE I PTSUNNY   63  58  84 S9        29.95F
SAN NICOLAS IS SUNNY    N/A N/A N/A W13       29.93F

$$

MARINE AND OFFSHORE BUOY REPORTS

STATION/POSITION SKY/WX   TEMP    WIND        PRES    SWELL
                          AIR SEA DIR/SP/G            HT/PER/DIR
                          (F)     (DEG/KT/KT) (MB)    (FT/S/D)
TANNER BANKS               60 62  320/ 14/ 17 1014.3F
S CLEMENTE BASIN           62 62  280/ 10/ 12 1013.4F   3/300/17
SAN NICOLAS IS.               62                N/A     3/290/17
SO. S. ROSA ISLA           59 60  330/ 17/ 21 1013.7S   5/16
W. S. BARBARA CH           58 60  330/ 17/ 19 1013.8S   3/300/17
S. MONICA BASIN            62 62  320/ 10/ 12 1013.8F   2/230/17
S PEDRO CHANNEL               62                N/A     2/260/17
DANA POINT                    61                N/A     2/280/17
CMP PENDLETON NS              62                N/A     2/240/18
OCEANSIDE OFFSHR              62                N/A     2/250/11
TORREY PINES OTR              62                N/A     2/270/18
LA JOLLA 1                 62 62  200/  2/  2 1014.1R
MISSION BAY BUOY              62                N/A     2/260/18
SAN DIEGO BAY                 62              1014.6R
POINT LOMA SOUTH              62                N/A     2/220/15

$$




USA.gov is the U.S. government's official web portal to all federal, state and local government web resources and services.